User: anonymous   Login
Location: ??????
(30.5519°N, 47.7720°E)
Time: 09:36:29
(UTC+00:00)
Language:

Cosmos 2292 Rocket - Orbit

View from above orbital plane
View from above orbital plane
View from above satellite
View from above satellite

Ground track
Ground track

The orbit data is extracted from the following two-line orbital elements,

1 23279U 94061B   21102.75803248  .00000727  00000-0  47822-4 0  9999
2 23279  82.9716 351.4276 0730935 248.0339 104.1642 13.94080042319419
Epoch (UTC): 12 April 2021 18:11:34
Eccentricity: 0.0730935
inclination: 82.9716°
perigee height: 381 km
apogee height: 1447 km
right ascension of ascending node: 351.4276°
argument of perigee: 248.0339°
revolutions per day: 13.94080042
mean anomaly at epoch: 104.1642°
orbit number at epoch: 31941

The dashed part of the orbit path shows where the satellite is in the earth's shadow,  

DLR